sat.trackr.live / text

‹ back to catalog

STARLINK-30285

NORAD 57840 · 2023-141A

PAYLOAD ACTIVE UNKNOWN

§ Identity

Operator
Country
US
Launch date
2023-09-12
Launch site
AFWTR
Launch vehicle
Mass (kg)
RCS (m²)

Purposes: comms

External: N2YO · Heavens-Above · Gunter

§ Orbital elements

Epoch: 2026-05-25T03:00:26.004672Z

Period
94.01 min
Inclination
53.1606°
Eccentricity
0.0000826
Mean motion
15.31704247 rev/d
Perigee alt
470.2 km
Apogee alt
471.3 km
Semi-major
6,848.9 km
B*
-5.6370e-6
RAAN
288.8679°
Arg perigee
91.3150°
Mean anomaly
268.7946°
Rev number
15,203

§ Raw data

STARLINK-302851 57840U 23141A   26145.12530098 -.00000540  00000+0 -56370-5 0  99972 57840  53.1606 288.8679 0000826  91.3150 268.7946 15.31704247152037

JSON: /api/v1/satellites/57840 · /tle

For live sub-satellite position, see the globe view (requires WebGL).

§ Visibility from observer

Set your observer location to see the next 7 days of passes ≥ 10°. The values pass through the URL so the page stays shareable.

No JS? Fill the form by hand. The geolocation button needs JavaScript.